{"data":{"norad_id":46784,"intl_designator":"2020-074AX","name":"STARLINK-1882","alt_names":[],"object_type":"PAYLOAD","status":"ACTIVE","operator":null,"country":"US","launch_date":"2020-10-24","launch_site_code":"AFETR","launch_vehicle":null,"mission":null,"orbit_class":"UNKNOWN","rcs_meters":null,"size_class":null,"mass_kg":null,"dimensions":null,"purposes":["comms"],"wikipedia_slug":null,"has_3d_model":false,"image_url":null,"decayed_at":null,"tle_current":{"epoch":"2026-05-25T00:00:02.000160Z","epoch_age_seconds":72355,"freshness":"FRESH","line1":"1 46784U 20074AX  26145.00002315  .00009727  00000+0  56900-4 0  9999","line2":"2 46784  53.0442 257.2193 0005717 340.6459  74.9636 15.79179134  6007","mean_motion":15.79179134,"eccentricity":0.0005717,"inclination_deg":53.0442,"raan_deg":257.2193,"arg_perigee_deg":340.6459,"mean_anomaly_deg":74.9636,"bstar":5.69e-5,"rev_number":600,"period_min":91.186615184848,"perigee_km":328.92858134092,"apogee_km":336.60182692112,"semimajor_km":6710.902204131,"source":"CELESTRAK","updated_at":"2026-05-25T13:38:16.519851Z"}}}